GW2011 Weather Reports


Display with metric or nautical units.
time (UTC)temp
F
wind
direction
speed
MPH
gust
MPH
rain 1hr
in
rain 24hr
in
rain mn
in
humidity
%
barometer
mb
20260503184534 67 336 2.0 8.0 0.00 0.01 0.00 30 1004.4
20260503184016 67 346 1.0 7.0 0.00 0.01 0.00 33 1004.4
20260503183514 67 292 3.0 8.0 0.00 0.01 0.00 30 1004.7
20260503183034 67 343 3.0 10.0 0.00 0.01 0.00 28 1004.7
20260503182517 67 55 3.0 10.0 0.00 0.01 0.00 30 1004.8
20260503182013 67 314 2.0 9.0 0.00 0.01 0.00 30 1004.7
20260503181533 67 46 2.0 9.0 0.00 0.01 0.00 32 1004.8
20260503181015 66 39 2.0 7.0 0.00 0.01 0.00 33 1004.9
20260503180518 66 313 2.0 8.0 0.00 0.01 0.00 30 1004.9
20260503180043 66 278 2.0 9.0 0.00 0.01 0.00 30 1004.9
20260503175515 66 46 2.0 9.0 0.00 0.01 0.00 30 1004.9
20260503175013 66 297 4.0 9.0 0.00 0.01 0.00 28 1004.9
20260503174535 66 337 1.0 7.0 0.00 0.01 0.00 34 1004.7
20260503174015 66 300 2.0 7.0 0.00 0.01 0.00 34 1004.9
20260503173517 66 13 1.0 7.0 0.00 0.01 0.00 33 1005.0
20260503173037 66 323 2.0 7.0 0.00 0.01 0.00 33 1005.1
20260503172514 66 339 2.0 6.0 0.00 0.01 0.00 34 1005.0
20260503172016 66 300 3.0 6.0 0.00 0.01 0.00 35 1005.1
20260503171532 65 65 1.0 6.0 0.00 0.01 0.00 38 1005.1
20260503171015 65 189 2.0 7.0 0.00 0.01 0.00 35 1005.3
20260503170516 65 340 2.0 7.0 0.00 0.01 0.00 37 1005.1
20260503150515 61 32 2.0 5.0 0.00 0.01 0.00 47 1005.3
20260503131019 51 321 0.0 3.0 0.00 0.01 0.00 63 1004.7
20260503130519 51 311 0.0 3.0 0.00 0.01 0.00 64 1004.6
20260503110516 47 308 1.0 4.0 0.00 0.01 0.00 67 1002.5
20260503081532 50 280 1.0 3.0 0.00 0.01 0.00 66 1001.7
20260503081014 50 280 1.0 2.0 0.00 0.01 0.00 65 1001.8
20260503080516 50 280 0.0 2.0 0.00 0.01 0.00 67 1001.7
20260503072515 53 273 2.0 4.0 0.00 0.01 0.00 61 1001.8
20260503072015 53 264 2.0 4.0 0.00 0.01 0.00 60 1001.9
20260503071532 53 257 2.0 4.0 0.00 0.01 0.00 62 1001.9
20260503071015 54 261 2.0 6.0 0.00 0.01 0.00 59 1001.8
20260503070512 54 267 2.0 6.0 0.00 0.01 0.00 59 1002.1
20260503060104 57 221 2.0 10.0 0.00 0.01 0.00 54 1002.7
20260503055013 57 244 5.0 12.0 0.00 0.01 0.00 56 1002.8
20260503054538 57 254 3.0 11.0 0.00 0.01 0.00 56 1002.7
20260503054016 57 234 5.0 12.0 0.00 0.01 0.00 56 1002.9
20260503053518 57 203 6.0 12.0 0.00 0.01 0.00 56 1002.7
20260503053033 58 236 5.0 14.0 0.00 0.01 0.00 54 1002.7
20260503052514 58 225 7.0 14.0 0.00 0.01 0.00 53 1002.6
20260503052013 58 226 6.0 11.0 0.00 0.01 0.00 53 1002.6
20260503051529 58 256 3.0 12.0 0.00 0.01 0.00 53 1002.6
20260503051015 58 239 5.0 14.0 0.00 0.01 0.00 52 1002.6
20260503050516 58 244 7.0 14.0 0.00 0.01 0.00 53 1002.7
20260503050034 59 224 6.0 15.0 0.00 0.01 0.00 53 1002.6
20260503045515 59 229 8.0 15.0 0.00 0.01 0.01 52 1002.6
20260503045018 59 246 7.0 15.0 0.00 0.01 0.01 52 1002.8
20260503044534 59 217 9.0 15.0 0.00 0.01 0.01 51 1002.9
20260503044015 59 215 9.0 15.0 0.00 0.01 0.01 51 1002.8
20260503043514 59 236 8.0 15.0 0.00 0.01 0.01 52 1002.9
20260503043041 59 234 9.0 17.0 0.00 0.01 0.01 52 1002.8
20260503042524 59 234 8.0 17.0 0.00 0.01 0.01 53 1003.0
20260503042013 58 242 9.0 15.0 0.00 0.01 0.01 55 1003.0
20260503041533 58 221 9.0 15.0 0.00 0.01 0.01 56 1003.3
20260503041017 58 262 7.0 15.0 0.00 0.01 0.01 53 1003.5
20260503040515 58 232 6.0 11.0 0.00 0.01 0.01 52 1003.5
20260503040034 58 248 8.0 12.0 0.00 0.01 0.01 53 1003.7
20260503035515 59 248 8.0 12.0 0.00 0.01 0.01 52 1003.5
20260503035015 59 248 6.0 15.0 0.00 0.01 0.01 51 1003.6
20260503034532 59 236 7.0 15.0 0.00 0.01 0.01 53 1003.5
20260503034014 59 243 9.0 15.0 0.00 0.01 0.01 52 1003.7
20260503033514 60 254 10.0 16.0 0.00 0.01 0.01 50 1003.8
20260503033036 60 253 12.0 17.0 0.00 0.01 0.01 49 1003.9
20260503032515 60 270 12.0 17.0 0.00 0.01 0.01 48 1003.9
20260503032016 59 265 10.0 16.0 0.00 0.01 0.01 48 1003.9
20260503031534 59 249 7.0 14.0 0.00 0.01 0.01 46 1004.1
20260503031015 59 232 7.0 13.0 0.00 0.01 0.01 46 1004.1
20260503030516 59 223 8.0 13.0 0.00 0.01 0.01 45 1004.1
20260503030034 58 239 5.0 10.0 0.00 0.01 0.01 45 1004.2
20260503025515 58 246 4.0 10.0 0.00 0.01 0.01 45 1004.2
20260503025016 58 235 4.0 8.0 0.00 0.01 0.01 46 1004.5
20260503024531 57 239 4.0 8.0 0.00 0.01 0.01 46 1004.6
20260503024013 56 244 1.0 4.0 0.00 0.01 0.01 48 1004.6
20260503023517 56 231 1.0 4.0 0.00 0.01 0.01 48 1004.7
20260503023034 56 351 2.0 4.0 0.00 0.01 0.01 49 1004.6
20260503022513 57 180 0.0 3.0 0.00 0.01 0.01 48 1004.4
20260503022014 57 0 1.0 3.0 0.00 0.01 0.01 49 1004.4
20260503021547 57 180 1.0 6.0 0.00 0.01 0.01 47 1004.5
20260503021013 57 184 2.0 6.0 0.00 0.01 0.01 45 1004.6
20260503020513 57 193 1.0 6.0 0.00 0.01 0.01 50 1004.7
20260503020039 58 194 1.0 3.0 0.00 0.01 0.01 47 1004.8
20260503015516 58 219 0.0 4.0 0.00 0.01 0.01 49 1004.9
20260503015013 58 219 1.0 4.0 0.00 0.01 0.01 45 1005.0
20260503014533 58 0 0.0 2.0 0.00 0.01 0.01 47 1005.0
20260503014016 59 207 0.0 3.0 0.00 0.01 0.01 47 1004.9
20260503013513 59 0 1.0 3.0 0.00 0.01 0.01 45 1005.0
20260503013031 60 209 1.0 5.0 0.00 0.01 0.01 44 1005.2
20260503012513 60 209 1.0 5.0 0.00 0.01 0.01 43 1005.2
20260503012015 60 0 1.0 6.0 0.00 0.01 0.01 44 1005.3
20260503011532 60 206 3.0 6.0 0.00 0.01 0.01 45 1005.2
20260503011016 60 220 4.0 8.0 0.00 0.01 0.01 46 1005.4
20260503010513 60 219 4.0 8.0 0.00 0.01 0.01 43 1005.4
20260503010030 60 229 2.0 5.0 0.00 0.01 0.01 48 1005.7
20260503005513 60 217 1.0 3.0 0.00 0.01 0.01 45 1005.6
20260503005017 60 217 1.0 3.0 0.00 0.01 0.01 45 1005.8
20260503004534 60 207 1.0 3.0 0.00 0.01 0.01 44 1005.8
20260503004012 61 207 2.0 5.0 0.00 0.01 0.01 43 1006.0
20260503003513 61 207 2.0 5.0 0.00 0.01 0.01 42 1006.0
20260503003048 61 207 2.0 8.0 0.00 0.01 0.01 43 1006.0
20260503002513 61 194 3.0 8.0 0.00 0.01 0.01 45 1006.2
20260503002017 60 190 3.0 6.0 0.00 0.01 0.01 42 1006.1
20260503001535 60 207 2.0 6.0 0.00 0.01 0.01 42 1006.3
20260503001016 60 235 4.0 6.0 0.00 0.01 0.01 44 1006.4
20260503000518 60 235 3.0 7.0 0.00 0.01 0.01 43 1006.6
20260503000034 61 243 4.0 7.0 0.00 0.01 0.01 43 1006.8
20260502235516 61 251 2.0 8.0 0.00 0.01 0.01 44 1006.7
20260502235017 61 243 2.0 8.0 0.00 0.01 0.01 42 1006.9
20260502234538 61 245 4.0 12.0 0.00 0.01 0.01 41 1007.0
20260502234017 61 257 8.0 12.0 0.00 0.01 0.01 43 1007.2
20260502233516 61 259 7.0 16.0 0.00 0.01 0.01 40 1007.4
20260502233032 62 306 9.0 16.0 0.00 0.01 0.01 40 1007.7
20260502232515 62 263 4.0 17.0 0.00 0.01 0.01 40 1007.7
20260502232014 62 294 6.0 17.0 0.00 0.01 0.01 39 1007.4
20260502231532 62 275 8.0 15.0 0.00 0.01 0.01 40 1007.5
20260502231016 63 347 3.0 12.0 0.00 0.01 0.01 38 1007.7
20260502230517 63 286 3.0 15.0 0.00 0.01 0.01 36 1007.5
20260502230031 63 273 6.0 15.0 0.00 0.01 0.01 38 1007.5
20260502225515 63 242 4.0 10.0 0.01 0.01 0.01 36 1007.5
20260502225014 64 270 5.0 13.0 0.01 0.01 0.01 35 1007.5
20260502224535 64 258 3.0 18.0 0.01 0.01 0.01 33 1007.2
20260502224013 64 294 8.0 18.0 0.01 0.01 0.01 34 1007.5
20260502223516 63 279 6.0 12.0 0.01 0.01 0.01 33 1007.3
20260502223031 63 271 9.0 12.0 0.01 0.01 0.01 38 1007.4
20260502222519 64 269 3.0 9.0 0.01 0.01 0.01 36 1007.2
20260502222016 64 257 6.0 12.0 0.01 0.01 0.01 35 1007.3
20260502221535 64 271 8.0 15.0 0.01 0.01 0.01 35 1007.3
20260502221016 64 267 9.0 15.0 0.01 0.01 0.01 38 1007.4
20260502220515 64 279 9.0 15.0 0.01 0.01 0.01 37 1007.4
20260502220037 64 276 6.0 14.0 0.01 0.01 0.01 34 1007.5
20260502215516 64 283 9.0 13.0 0.00 0.00 0.00 35 1007.6
20260502215013 64 265 7.0 16.0 0.00 0.00 0.00 37 1007.5
20260502214531 64 263 5.0 16.0 0.00 0.00 0.00 35 1007.5
20260502214018 64 265 8.0 13.0 0.00 0.00 0.00 35 1007.5
20260502213515 64 273 8.0 16.0 0.00 0.00 0.00 38 1007.5
20260502213046 64 285 11.0 17.0 0.00 0.00 0.00 36 1007.6
20260502212514 64 273 8.0 17.0 0.00 0.00 0.00 35 1007.5
20260502212014 65 244 9.0 17.0 0.00 0.00 0.00 36 1007.5
20260502211532 65 270 7.0 17.0 0.00 0.00 0.00 35 1007.6
20260502211012 65 263 8.0 15.0 0.00 0.00 0.00 34 1007.6
20260502210513 64 255 6.0 14.0 0.00 0.00 0.00 36 1007.5
20260502210031 65 255 6.0 19.0 0.00 0.00 0.00 38 1007.8
20260502205511 65 258 11.0 19.0 0.00 0.00 0.00 35 1007.9
20260502205019 65 278 10.0 17.0 0.00 0.00 0.00 34 1008.0
20260502204535 66 257 9.0 17.0 0.00 0.00 0.00 35 1008.0
20260502204015 65 285 7.0 15.0 0.00 0.00 0.00 34 1007.9
20260502203517 64 261 8.0 17.0 0.00 0.00 0.00 35 1008.0
20260502203038 64 260 9.0 17.0 0.00 0.00 0.00 36 1008.0
20260502202514 64 263 8.0 15.0 0.00 0.00 0.00 38 1008.3
20260502202017 64 257 11.0 15.0 0.00 0.00 0.00 37 1008.3
20260502201530 63 279 7.0 16.0 0.00 0.00 0.00 37 1008.4
20260502201014 64 237 10.0 16.0 0.00 0.00 0.00 39 1008.5
20260502200514 64 259 10.0 14.0 0.00 0.00 0.00 38 1008.4
20260502200055 65 242 6.0 19.0 0.00 0.00 0.00 35 1008.6
20260502195514 64 259 9.0 19.0 0.00 0.00 0.00 37 1008.7
20260502195014 63 263 10.0 16.0 0.00 0.00 0.00 40 1008.8
20260502194531 64 252 10.0 15.0 0.00 0.00 0.00 36 1009.0
20260502194014 64 255 10.0 16.0 0.00 0.00 0.00 39 1009.1
20260502193514 63 287 8.0 19.0 0.00 0.00 0.00 40 1009.1
20260502193031 62 260 13.0 19.0 0.00 0.00 0.00 41 1009.1
20260502192514 62 244 9.0 17.0 0.00 0.00 0.00 42 1009.3
20260502192014 62 219 10.0 17.0 0.00 0.00 0.00 40 1009.3
20260502191533 61 242 9.0 17.0 0.00 0.00 0.00 41 1009.6
20260502191014 61 238 10.0 18.0 0.00 0.00 0.00 40 1009.6
20260502190518 61 265 9.0 18.0 0.00 0.00 0.00 42 1009.8
20260502190030 61 256 12.0 18.0 0.00 0.00 0.00 41 1010.1
20260502185514 61 217 10.0 18.0 0.00 0.00 0.00 42 1010.2
20260502185015 60 226 9.0 15.0 0.00 0.00 0.00 42 1010.3